DW8791 Weather Reports


time (UTC)temp
C
wind
direction
speed
KPH
gust
KPH
rain 1hr
cm
rain 24hr
cm
rain mn
cm
humidity
%
barometer
mb
20260507171606 12 150 11.3 24.1 0.00 0.00 0.00 75 1014.5
20260507171107 12 116 8.0 24.1 0.00 0.00 0.00 75 1014.5
20260507170608 12 126 12.9 20.9 0.00 0.00 0.00 74 1014.5
20260507170107 12 128 11.3 25.7 0.00 0.00 0.00 74 1014.5
20260507164606 12 128 11.3 29.0 0.00 0.00 0.00 74 1014.4
20260507163607 12 121 14.5 24.1 0.00 0.00 0.00 73 1014.5
20260507163107 12 130 9.7 27.4 0.00 0.00 0.00 74 1014.5
20260507161607 12 124 14.5 29.0 0.00 0.00 0.00 74 1014.6
20260507161106 12 112 14.5 29.0 0.00 0.00 0.00 73 1014.6
20260507160607 12 126 14.5 29.0 0.00 0.00 0.00 74 1014.6
20260507154607 12 148 12.9 25.7 0.00 0.00 0.00 73 1014.7
20260507154106 12 121 9.7 20.9 0.00 0.00 0.00 73 1014.7
20260507153608 12 142 14.5 24.1 0.00 0.00 0.00 73 1014.7
20260507153106 12 125 14.5 32.2 0.00 0.00 0.00 73 1014.7
20260507151607 12 118 16.1 27.4 0.00 0.00 0.00 71 1014.7
20260507151106 13 129 14.5 27.4 0.00 0.00 0.00 71 1014.7
20260507150607 13 128 11.3 27.4 0.00 0.00 0.00 72 1014.7
20260507150106 13 140 14.5 27.4 0.00 0.00 0.00 70 1014.7
20260507144607 13 131 11.3 22.5 0.00 0.00 0.00 70 1014.7
20260507143607 13 115 9.7 22.5 0.00 0.00 0.00 69 1014.8
20260507141107 13 129 11.3 29.0 0.00 0.00 0.00 67 1015.0
20260507140607 13 131 11.3 29.0 0.00 0.00 0.00 67 1014.9
20260507140107 14 134 11.3 27.4 0.00 0.00 0.00 67 1015.0
20260507134607 13 137 9.7 22.5 0.00 0.00 0.00 66 1015.0
20260507134107 13 123 14.5 22.5 0.00 0.00 0.00 67 1015.0
20260507133607 13 114 9.7 22.5 0.00 0.00 0.00 67 1015.0
20260507133106 13 120 11.3 20.9 0.00 0.00 0.00 65 1015.0
20260507131607 13 121 11.3 24.1 0.00 0.00 0.00 66 1015.1
20260507131108 13 127 12.9 24.1 0.00 0.00 0.00 66 1015.1
20260507130606 13 134 12.9 24.1 0.00 0.00 0.00 65 1015.1
20260507130107 13 148 12.9 24.1 0.00 0.00 0.00 63 1015.1
20260507124607 13 116 11.3 22.5 0.00 0.00 0.00 64 1015.1
20260507124108 13 140 8.0 19.3 0.00 0.00 0.00 64 1015.1
20260507123607 13 112 8.0 19.3 0.00 0.00 0.00 65 1015.2
20260507123107 13 147 11.3 19.3 0.00 0.00 0.00 63 1015.2
20260507121606 13 147 8.0 19.3 0.00 0.00 0.00 64 1015.3
20260507120607 13 125 8.0 14.5 0.00 0.00 0.00 63 1015.3
20260507120108 13 132 8.0 19.3 0.00 0.00 0.00 61 1015.3
20260507114606 13 123 9.7 19.3 0.00 0.00 0.00 62 1015.4
20260507113107 13 125 9.7 16.1 0.00 0.00 0.00 60 1015.4
20260507111606 13 89 9.7 19.3 0.00 0.00 0.00 61 1015.5
20260507111107 13 128 9.7 19.3 0.00 0.00 0.00 60 1015.5
20260507110607 13 118 4.8 14.5 0.00 0.00 0.00 62 1015.6
20260507110108 13 156 4.8 14.5 0.00 0.00 0.00 58 1015.6
20260507104607 13 168 1.6 12.9 0.00 0.00 0.00 56 1015.7
20260507104107 13 188 4.8 12.9 0.00 0.00 0.00 57 1015.7
20260507103607 13 202 3.2 14.5 0.00 0.00 0.00 57 1015.7
20260507103107 13 206 6.4 16.1 0.00 0.00 0.00 57 1015.8
20260507101108 13 127 4.8 16.1 0.00 0.00 0.00 61 1015.7
20260507100607 12 145 4.8 16.1 0.00 0.00 0.00 61 1015.8
20260507100107 12 149 8.0 16.1 0.00 0.00 0.00 62 1015.8
20260507094106 13 178 3.2 12.9 0.00 0.00 0.00 60 1015.7
20260507093607 13 152 8.0 14.5 0.00 0.00 0.00 58 1015.7
20260507093106 13 145 8.0 14.5 0.00 0.00 0.00 58 1015.7
20260507091607 12 136 3.2 14.5 0.00 0.00 0.00 62 1015.8
20260507091107 12 199 8.0 14.5 0.00 0.00 0.00 63 1015.8
20260507090606 12 147 6.4 12.9 0.00 0.00 0.00 64 1015.8
20260507084607 11 198 1.6 11.3 0.00 0.00 0.00 66 1015.9
20260507083107 11 178 4.8 11.3 0.00 0.00 0.00 67 1015.9
20260507080108 11 152 4.8 14.5 0.00 0.00 0.00 70 1016.0
20260507074606 10 168 4.8 12.9 0.00 0.00 0.00 73 1016.0
20260507074106 10 115 4.8 14.5 0.00 0.00 0.00 74 1016.0
20260507073607 10 155 6.4 14.5 0.00 0.00 0.00 73 1016.0
20260507073107 10 138 4.8 12.9 0.00 0.00 0.00 74 1016.0
20260507071606 10 164 3.2 11.3 0.00 0.00 0.00 73 1015.9
20260507071106 10 124 3.2 11.3 0.00 0.00 0.00 73 1015.9
20260507070107 10 129 3.2 8.0 0.00 0.00 0.00 73 1015.9
20260507064607 9 285 0.0 3.2 0.00 0.00 0.00 74 1015.9
20260507064106 8 259 0.0 3.2 0.00 0.00 0.00 74 1015.9
20260507063607 8 27 0.0 0.0 0.00 0.00 0.00 75 1015.9
20260507063107 8 35 0.0 0.0 0.00 0.00 0.00 76 1015.8
20260507060607 6 351 0.0 0.0 0.00 0.00 0.00 80 1015.7
20260507060106 6 351 0.0 0.0 0.00 0.00 0.00 81 1015.6
20260507054606 5 351 0.0 0.0 0.00 0.00 0.00 83 1015.7
20260507054107 5 354 0.0 0.0 0.00 0.00 0.00 84 1015.7
20260507053607 5 355 0.0 0.0 0.00 0.00 0.00 85 1015.7
20260507053106 4 355 0.0 0.0 0.00 0.00 0.00 86 1015.7
20260507051606 3 351 0.0 0.0 0.00 0.00 0.00 87 1015.8
20260507050606 3 351 0.0 0.0 0.00 0.00 0.00 88 1015.7
20260507050106 3 351 0.0 0.0 0.00 0.00 0.00 89 1015.7
20260507044608 3 355 0.0 3.2 0.00 0.00 0.00 88 1015.6
20260507043607 3 351 0.0 0.0 0.00 0.00 0.00 88 1015.5
20260507043107 3 351 0.0 0.0 0.00 0.00 0.00 88 1015.5
20260507041607 3 351 0.0 0.0 0.00 0.00 0.00 88 1015.5
20260507041106 3 351 0.0 0.0 0.00 0.00 0.00 88 1015.5
20260507040606 3 351 0.0 0.0 0.00 0.00 0.00 88 1015.6
20260507040107 3 351 0.0 3.2 0.00 0.00 0.00 88 1015.6
20260507034606 3 351 0.0 3.2 0.00 0.00 0.00 87 1015.5
20260507034107 3 351 0.0 3.2 0.00 0.00 0.00 87 1015.6
20260507033606 3 351 0.0 4.8 0.00 0.00 0.00 87 1015.6
20260507033107 3 351 1.6 4.8 0.00 0.00 0.00 87 1015.6
20260507031608 3 348 0.0 4.8 0.00 0.00 0.00 87 1015.6
20260507031106 3 346 1.6 4.8 0.00 0.00 0.00 87 1015.6
20260507030107 3 5 0.0 0.0 0.00 0.00 0.00 87 1015.6
20260507024606 3 5 0.0 0.0 0.00 0.00 0.00 86 1015.5
20260507024107 3 5 0.0 0.0 0.00 0.00 0.00 86 1015.5
20260507023606 3 5 0.0 0.0 0.00 0.00 0.00 86 1015.5
20260507023106 3 334 0.0 0.0 0.00 0.00 0.00 86 1015.5
20260507021608 4 341 0.0 0.0 0.00 0.00 0.00 85 1015.5
20260507021107 4 341 0.0 0.0 0.00 0.00 0.00 85 1015.5
20260507020607 4 341 0.0 0.0 0.00 0.00 0.00 85 1015.4
20260507020106 4 341 0.0 0.0 0.00 0.00 0.00 85 1015.4
20260507014608 4 341 0.0 0.0 0.00 0.00 0.00 84 1015.3
20260507014107 5 341 0.0 0.0 0.00 0.00 0.00 84 1015.4
20260507013106 5 341 0.0 0.0 0.00 0.00 0.00 84 1015.5
20260507011606 5 336 0.0 0.0 0.00 0.00 0.00 83 1015.4
20260507011107 5 336 0.0 0.0 0.00 0.00 0.00 83 1015.5
20260507010607 5 336 0.0 0.0 0.00 0.00 0.00 82 1015.5
20260507010107 5 336 0.0 0.0 0.00 0.00 0.00 82 1015.5
20260507004607 6 336 0.0 0.0 0.00 0.00 0.00 81 1015.4
20260507003606 6 336 0.0 0.0 0.00 0.00 0.00 81 1015.4
20260507003107 6 336 0.0 0.0 0.00 0.00 0.00 81 1015.4
20260507001606 6 336 0.0 3.2 0.00 0.00 0.00 80 1015.4
20260507001106 6 336 0.0 3.2 0.00 0.00 0.00 80 1015.5
20260507000107 6 349 1.6 4.8 0.00 0.00 0.00 78 1015.5
20260506234607 7 335 1.6 3.2 0.00 0.00 0.00 75 1015.5
20260506234107 7 105 0.0 3.2 0.00 0.00 0.00 75 1015.5
20260506233607 8 105 0.0 3.2 0.00 0.00 0.00 74 1015.5
20260506231606 8 116 3.2 12.9 0.00 0.00 0.00 74 1015.5
20260506224607 8 127 3.2 11.3 0.00 0.00 0.00 74 1015.5
20260506223606 8 109 4.8 11.3 0.00 0.00 0.00 74 1015.5
20260506223107 8 113 3.2 11.3 0.00 0.00 0.00 74 1015.5
20260506221606 7 126 1.6 4.8 0.00 0.00 0.00 74 1015.4
20260506221106 7 67 3.2 4.8 0.00 0.00 0.00 74 1015.3
20260506220107 7 106 3.2 4.8 0.00 0.00 0.00 74 1015.3
20260506214607 7 71 0.0 0.0 0.00 0.00 0.00 74 1015.4
20260506214107 7 71 0.0 0.0 0.00 0.00 0.00 74 1015.4
20260506213606 7 47 0.0 0.0 0.00 0.00 0.00 74 1015.4
20260506213107 7 64 0.0 0.0 0.00 0.00 0.00 73 1015.4
20260506211607 8 80 1.6 4.8 0.00 0.00 0.00 73 1015.4
20260506210607 8 67 3.2 4.8 0.00 0.00 0.00 72 1015.4
20260506210108 8 81 3.2 4.8 0.00 0.00 0.00 72 1015.4
20260506204606 8 56 3.2 4.8 0.00 0.00 0.00 72 1015.4
20260506204106 8 70 3.2 4.8 0.00 0.00 0.00 71 1015.4
20260506203606 8 75 3.2 9.7 0.00 0.00 0.00 71 1015.3
20260506203108 8 81 3.2 9.7 0.00 0.00 0.00 71 1015.3
20260506201607 8 82 4.8 9.7 0.00 0.00 0.00 71 1015.3
20260506201108 8 67 4.8 12.9 0.00 0.00 0.00 71 1015.2
20260506194607 8 71 3.2 14.5 0.00 0.00 0.00 71 1015.1
20260506194106 8 80 6.4 14.5 0.00 0.00 0.00 71 1015.1
20260506193107 8 79 8.0 16.1 0.00 0.00 0.00 69 1015.0
20260506191107 9 70 6.4 16.1 0.00 0.00 0.00 67 1014.9
20260506190606 9 92 8.0 16.1 0.00 0.00 0.00 67 1015.0
20260506184606 9 75 9.7 19.3 0.00 0.00 0.00 66 1014.8
20260506184107 9 79 9.7 19.3 0.00 0.00 0.00 66 1014.9
20260506183607 9 70 8.0 19.3 0.00 0.00 0.00 66 1014.8
20260506181606 10 62 9.7 16.1 0.00 0.00 0.00 66 1014.8
20260506181106 10 68 4.8 16.1 0.00 0.00 0.00 66 1014.8
20260506180606 10 74 8.0 16.1 0.00 0.00 0.00 65 1014.8
20260506180106 10 61 4.8 16.1 0.00 0.00 0.00 64 1014.7
20260506174107 10 58 6.4 20.9 0.00 0.00 0.00 63 1014.7
20260506173607 10 103 4.8 19.3 0.00 0.00 0.00 64 1014.6
20260506173107 10 47 8.0 19.3 0.00 0.00 0.00 64 1014.6